TimeEST,TemperatureF,Dew PointF,Humidity,Sea Level PressureIn,VisibilityMPH,Wind Direction,Wind SpeedMPH,Gust SpeedMPH,PrecipitationIn,Events,Conditions,WindDirDegrees,DateUTC
12:14 AM,37.0,25.3,63,30.02,10.0,Calm,Calm,-,N/A,,Overcast,0,2012-11-07 05:14:00
12:33 AM,37.0,25.3,63,30.02,10.0,SE,8.1,-,N/A,,Overcast,140,2012-11-07 05:33:00
12:53 AM,37.0,25.5,63,30.02,10.0,SE,6.9,-,N/A,,Overcast,130,2012-11-07 05:53:00
1:14 AM,36.9,25.5,64,30.02,10.0,SE,4.6,-,N/A,,Overcast,130,2012-11-07 06:14:00
1:33 AM,36.9,26.1,65,30.03,10.0,SSE,5.8,-,N/A,,Overcast,150,2012-11-07 06:33:00
1:53 AM,36.9,26.2,65,30.03,10.0,SE,5.8,-,N/A,,Overcast,130,2012-11-07 06:53:00
2:14 AM,37.0,26.6,66,30.04,10.0,SE,5.8,-,N/A,,Overcast,140,2012-11-07 07:14:00
2:33 AM,37.4,26.6,65,30.03,10.0,SSE,6.9,-,N/A,,Overcast,150,2012-11-07 07:33:00
2:53 AM,37.0,27.0,67,30.04,10.0,SSE,6.9,-,N/A,,Overcast,150,2012-11-07 07:53:00
3:14 AM,37.0,27.3,68,30.04,10.0,SSE,6.9,-,N/A,,Overcast,150,2012-11-07 08:14:00
3:33 AM,37.0,27.3,68,30.04,10.0,SSE,6.9,-,N/A,,Overcast,160,2012-11-07 08:33:00
3:53 AM,37.0,27.1,67,30.05,10.0,SSE,5.8,-,N/A,,Overcast,160,2012-11-07 08:53:00
4:13 AM,36.9,27.5,69,30.05,10.0,South,4.6,-,N/A,,Overcast,180,2012-11-07 09:13:00
4:33 AM,36.9,27.5,69,30.05,10.0,South,5.8,-,N/A,,Overcast,180,2012-11-07 09:33:00
4:53 AM,36.7,27.5,69,30.05,10.0,SSE,4.6,-,N/A,,Overcast,160,2012-11-07 09:53:00
5:13 AM,36.5,27.5,70,30.05,10.0,SSE,3.5,-,N/A,,Overcast,150,2012-11-07 10:13:00
5:33 AM,36.0,27.3,71,30.06,10.0,SSE,4.6,-,N/A,,Mostly Cloudy,160,2012-11-07 10:33:00
5:53 AM,36.3,28.0,72,30.07,10.0,SE,3.5,-,N/A,,Overcast,140,2012-11-07 10:53:00
6:13 AM,36.5,28.4,72,30.07,10.0,SSE,3.5,-,N/A,,Overcast,150,2012-11-07 11:13:00
6:33 AM,36.9,27.5,69,30.08,10.0,SSE,5.8,-,N/A,,Overcast,160,2012-11-07 11:33:00
6:53 AM,36.9,27.3,68,30.08,10.0,SSE,6.9,-,N/A,,Overcast,160,2012-11-07 11:53:00
7:13 AM,37.0,27.3,68,30.09,10.0,SSE,5.8,-,N/A,,Overcast,160,2012-11-07 12:13:00
7:33 AM,37.4,27.5,67,30.10,10.0,SSE,3.5,-,N/A,,Overcast,150,2012-11-07 12:33:00
7:53 AM,37.4,27.5,67,30.10,10.0,South,6.9,-,N/A,,Overcast,180,2012-11-07 12:53:00
8:13 AM,37.6,26.8,65,30.11,10.0,South,6.9,-,N/A,,Overcast,170,2012-11-07 13:13:00
8:33 AM,37.8,27.0,65,30.12,10.0,South,6.9,-,N/A,,Overcast,180,2012-11-07 13:33:00
8:54 AM,37.8,27.9,67,30.12,10.0,SSE,6.9,-,N/A,,Overcast,160,2012-11-07 13:54:00
9:13 AM,37.8,27.5,67,30.12,10.0,South,4.6,-,N/A,,Overcast,170,2012-11-07 14:13:00
9:33 AM,37.9,26.8,64,30.13,10.0,SSE,8.1,-,N/A,,Overcast,150,2012-11-07 14:33:00
9:54 AM,37.9,27.9,67,30.13,10.0,SSE,6.9,-,N/A,,Overcast,160,2012-11-07 14:54:00
10:13 AM,37.9,27.7,67,30.13,10.0,South,8.1,-,N/A,,Overcast,180,2012-11-07 15:13:00
10:33 AM,37.9,28.4,69,30.13,10.0,South,4.6,-,N/A,,Overcast,180,2012-11-07 15:33:00
10:54 AM,38.5,28.9,69,30.13,10.0,South,5.8,-,N/A,,Overcast,170,2012-11-07 15:54:00
11:13 AM,38.7,29.1,69,30.14,10.0,South,5.8,-,N/A,,Overcast,170,2012-11-07 16:13:00
11:33 AM,38.8,29.1,68,30.13,10.0,South,5.8,-,N/A,,Overcast,180,2012-11-07 16:33:00
11:54 AM,39.4,29.1,67,30.13,10.0,South,3.5,-,N/A,,Overcast,180,2012-11-07 16:54:00
12:13 PM,41.0,29.1,63,30.13,10.0,South,5.8,-,N/A,,Overcast,170,2012-11-07 17:13:00
12:33 PM,40.3,28.6,63,30.11,10.0,SSE,6.9,-,N/A,,Overcast,150,2012-11-07 17:33:00
12:54 PM,41.4,28.0,59,30.10,10.0,SE,6.9,-,N/A,,Overcast,130,2012-11-07 17:54:00
1:13 PM,41.4,27.7,58,30.11,10.0,SE,8.1,-,N/A,,Overcast,140,2012-11-07 18:13:00
1:33 PM,41.2,27.0,57,30.11,10.0,SE,6.9,-,N/A,,Overcast,130,2012-11-07 18:33:00
1:54 PM,41.2,26.6,56,30.11,10.0,SSE,5.8,-,N/A,,Overcast,160,2012-11-07 18:54:00
2:13 PM,41.0,27.0,57,30.12,10.0,SSE,5.8,-,N/A,,Overcast,150,2012-11-07 19:13:00
2:33 PM,41.0,27.9,60,30.11,10.0,SSE,6.9,-,N/A,,Overcast,160,2012-11-07 19:33:00
2:54 PM,41.0,27.3,58,30.11,10.0,SSE,4.6,-,N/A,,Overcast,150,2012-11-07 19:54:00
3:13 PM,41.0,27.3,58,30.12,10.0,SSE,3.5,-,N/A,,Overcast,150,2012-11-07 20:13:00
3:33 PM,41.0,27.5,59,30.12,10.0,Calm,Calm,-,N/A,,Overcast,0,2012-11-07 20:33:00
3:54 PM,41.0,27.3,58,30.12,10.0,Calm,Calm,-,N/A,,Overcast,0,2012-11-07 20:54:00
4:13 PM,40.6,27.3,59,30.11,10.0,Calm,Calm,-,N/A,,Overcast,0,2012-11-07 21:13:00
4:33 PM,40.5,27.5,60,30.11,10.0,SSE,4.6,-,N/A,,Overcast,160,2012-11-07 21:33:00
4:54 PM,40.5,27.5,60,30.11,10.0,SSE,3.5,-,N/A,,Overcast,160,2012-11-07 21:54:00
5:13 PM,40.5,27.3,59,30.12,10.0,Calm,Calm,-,N/A,,Overcast,0,2012-11-07 22:13:00
5:33 PM,40.3,27.3,60,30.12,10.0,SSE,3.5,-,N/A,,Overcast,150,2012-11-07 22:33:00
5:53 PM,39.6,27.9,63,30.12,10.0,SE,3.5,-,N/A,,Mostly Cloudy,140,2012-11-07 22:53:00
6:13 PM,38.8,27.1,63,30.12,10.0,SE,3.5,-,N/A,,Scattered Clouds,140,2012-11-07 23:13:00
6:33 PM,38.3,27.1,64,30.14,10.0,SSE,3.5,-,N/A,,Clear,160,2012-11-07 23:33:00
6:54 PM,37.0,27.3,68,30.14,10.0,SE,4.6,-,N/A,,Clear,140,2012-11-07 23:54:00
7:13 PM,37.0,27.0,67,30.15,10.0,SSE,4.6,-,N/A,,Clear,150,2012-11-08 00:13:00
7:33 PM,37.4,26.6,65,30.15,10.0,SE,4.6,-,N/A,,Mostly Cloudy,140,2012-11-08 00:33:00
7:53 PM,38.5,26.4,62,30.15,10.0,SE,4.6,-,N/A,,Overcast,140,2012-11-08 00:53:00
8:13 PM,38.7,26.8,62,30.15,10.0,SSE,4.6,-,N/A,,Overcast,150,2012-11-08 01:13:00
8:33 PM,38.3,27.0,64,30.15,10.0,SSE,4.6,-,N/A,,Mostly Cloudy,160,2012-11-08 01:33:00
8:53 PM,36.5,27.1,69,30.15,10.0,SSE,5.8,-,N/A,,Scattered Clouds,160,2012-11-08 01:53:00
9:13 PM,37.8,27.3,66,30.15,10.0,SSE,3.5,-,N/A,,Mostly Cloudy,160,2012-11-08 02:13:00
9:33 PM,37.4,27.3,67,30.15,10.0,SSE,4.6,-,N/A,,Scattered Clouds,150,2012-11-08 02:33:00
9:53 PM,36.9,27.5,69,30.15,10.0,SSE,5.8,-,N/A,,Clear,160,2012-11-08 02:53:00
10:13 PM,37.6,28.0,68,30.15,10.0,SSE,5.8,-,N/A,,Clear,150,2012-11-08 03:13:00
10:33 PM,37.8,28.4,69,30.15,10.0,SSE,4.6,-,N/A,,Clear,160,2012-11-08 03:33:00
10:53 PM,38.1,29.5,71,30.14,10.0,South,4.6,-,N/A,,Clear,170,2012-11-08 03:53:00
11:13 PM,38.3,29.5,71,30.14,10.0,South,6.9,-,N/A,,Clear,170,2012-11-08 04:13:00
11:34 PM,38.3,29.3,70,30.14,10.0,South,6.9,-,N/A,,Clear,180,2012-11-08 04:34:00
11:53 PM,38.7,29.3,69,30.15,10.0,South,6.9,-,N/A,,Mostly Cloudy,170,2012-11-08 04:53:00